Tracking 19245 objects as of 14-Aug-2018
HD Live streaming from Space Station
objects crossing your sky now

TELSTAR 302

Track TELSTAR 302 now!
TELSTAR 302 is classified as:


NORAD ID: 15237
Int'l Code: 1984-093D
Perigee: 35,926.8 km
Apogee: 35,937.2 km
Inclination: 15.3 °
Period: 1,443.2 minutes
Semi major axis: 42302 km
RCS: 4.6276 m2 (large)
Launch date: August 30, 1984
Source: United States (US)
Launch site: AIR FORCE EASTERN TEST RANGE (AFETR)
aabbcc
Your satellite tracking list
Your tracking list is empty




NASA's NSSDC Master Catalog

Two Line Element Set (TLE):
1 15237U 84093D   18225.06120231 +.00000036 +00000-0 +00000-0 0  9994
2 15237 015.2544 009.4743 0001237 057.9564 302.0972 00.99780616096135
Source of the keplerian elements: AFSPC